Time,TemperatureF,DewpointF,PressureIn,WindDirection,WindDirectionDegrees,WindSpeedMPH,WindSpeedGustMPH,Humidity,HourlyPrecipIn,Conditions,Clouds,dailyrainin,SoftwareType,DateUTC
2015-05-05 00:03:00,56.5,51.4,30.29,NW,307,0.0,0.0,83,0.00,,,0.00,Wunderground v.1.13,2015-05-05 04:03:00,
2015-05-05 00:08:00,56.3,51.2,30.30,NW,307,0.0,0.0,83,0.00,,,0.00,Wunderground v.1.13,2015-05-05 04:08:00,
2015-05-05 00:14:00,56.2,51.4,30.30,NW,307,0.0,0.0,84,0.00,,,0.00,Wunderground v.1.13,2015-05-05 04:14:00,
2015-05-05 00:20:00,56.1,51.3,30.30,NW,307,0.0,0.0,84,0.00,,,0.00,Wunderground v.1.13,2015-05-05 04:20:00,
2015-05-05 00:25:00,55.9,51.5,30.30,NW,307,0.0,0.0,85,0.00,,,0.00,Wunderground v.1.13,2015-05-05 04:25:00,
2015-05-05 00:31:00,55.8,51.4,30.30,NW,307,0.0,0.0,85,0.00,,,0.00,Wunderground v.1.13,2015-05-05 04:31:00,
2015-05-05 00:37:00,55.6,51.2,30.30,NW,307,0.0,0.0,85,0.00,,,0.00,Wunderground v.1.13,2015-05-05 04:37:00,
2015-05-05 00:43:00,55.4,51.3,30.30,NW,307,0.0,0.0,86,0.00,,,0.00,Wunderground v.1.13,2015-05-05 04:43:00,
2015-05-05 00:48:00,55.2,51.1,30.30,NW,307,0.0,0.0,86,0.00,,,0.00,Wunderground v.1.13,2015-05-05 04:48:00,
2015-05-05 00:54:00,55.1,51.0,30.30,NW,307,0.0,0.0,86,0.00,,,0.00,Wunderground v.1.13,2015-05-05 04:54:00,
2015-05-05 00:59:00,55.0,50.9,30.30,NW,307,0.0,0.0,86,0.00,,,0.00,Wunderground v.1.13,2015-05-05 04:59:00,
2015-05-05 01:04:00,54.8,51.0,30.30,NW,307,0.0,0.0,87,0.00,,,0.00,Wunderground v.1.13,2015-05-05 05:04:00,
2015-05-05 01:10:00,54.6,50.8,30.30,NW,307,0.0,0.0,87,0.00,,,0.00,Wunderground v.1.13,2015-05-05 05:10:00,
2015-05-05 01:15:00,54.5,50.7,30.30,NW,307,0.0,0.0,87,0.00,,,0.00,Wunderground v.1.13,2015-05-05 05:15:00,
2015-05-05 01:21:00,54.4,50.9,30.30,NW,307,0.0,0.0,88,0.00,,,0.00,Wunderground v.1.13,2015-05-05 05:21:00,
2015-05-05 01:27:00,54.2,50.7,30.30,NW,307,0.0,0.0,88,0.00,,,0.00,Wunderground v.1.13,2015-05-05 05:27:00,
2015-05-05 01:32:00,54.2,50.7,30.30,NW,307,0.0,0.0,88,0.00,,,0.00,Wunderground v.1.13,2015-05-05 05:32:00,
2015-05-05 01:37:00,54.1,50.6,30.30,NW,307,0.0,0.0,88,0.00,,,0.00,Wunderground v.1.13,2015-05-05 05:37:00,
2015-05-05 01:43:00,54.0,50.5,30.30,NW,307,0.0,0.0,88,0.00,,,0.00,Wunderground v.1.13,2015-05-05 05:43:00,
2015-05-05 01:48:00,53.9,50.4,30.30,NW,307,0.0,0.0,88,0.00,,,0.00,Wunderground v.1.13,2015-05-05 05:48:00,
2015-05-05 01:54:00,53.8,50.3,30.31,NW,307,0.0,0.0,88,0.00,,,0.00,Wunderground v.1.13,2015-05-05 05:54:00,
2015-05-05 01:59:00,53.7,50.2,30.31,NW,307,0.0,0.0,88,0.00,,,0.00,Wunderground v.1.13,2015-05-05 05:59:00,
2015-05-05 02:05:00,53.6,50.4,30.30,NW,307,0.0,0.0,89,0.00,,,0.00,Wunderground v.1.13,2015-05-05 06:05:00,
2015-05-05 02:11:00,53.6,50.4,30.30,NW,307,0.0,0.0,89,0.00,,,0.00,Wunderground v.1.13,2015-05-05 06:11:00,
2015-05-05 02:17:00,53.5,50.3,30.30,NW,307,0.0,0.0,89,0.00,,,0.00,Wunderground v.1.13,2015-05-05 06:17:00,
2015-05-05 02:22:00,53.5,50.3,30.30,NW,307,0.0,0.0,89,0.00,,,0.00,Wunderground v.1.13,2015-05-05 06:22:00,
2015-05-05 02:28:00,53.4,50.5,30.30,NW,307,0.0,0.0,90,0.00,,,0.00,Wunderground v.1.13,2015-05-05 06:28:00,
2015-05-05 02:34:00,53.3,50.4,30.30,NW,307,0.0,0.0,90,0.00,,,0.00,Wunderground v.1.13,2015-05-05 06:34:00,
2015-05-05 02:39:00,53.3,50.1,30.30,NW,307,0.0,0.0,89,0.00,,,0.00,Wunderground v.1.13,2015-05-05 06:39:00,
2015-05-05 02:45:00,53.3,50.4,30.30,NW,307,0.0,0.0,90,0.00,,,0.00,Wunderground v.1.13,2015-05-05 06:45:00,
2015-05-05 02:50:00,53.2,50.3,30.30,NW,307,0.0,0.0,90,0.00,,,0.00,Wunderground v.1.13,2015-05-05 06:50:00,
2015-05-05 02:56:00,53.1,50.2,30.30,NW,307,0.0,0.0,90,0.00,,,0.00,Wunderground v.1.13,2015-05-05 06:56:00,
2015-05-05 03:01:00,53.1,50.2,30.30,NW,307,0.0,0.0,90,0.00,,,0.00,Wunderground v.1.13,2015-05-05 07:01:00,
2015-05-05 03:07:00,53.1,50.2,30.30,NW,307,0.0,0.0,90,0.00,,,0.00,Wunderground v.1.13,2015-05-05 07:07:00,
2015-05-05 03:12:00,53.0,50.1,30.30,NW,307,0.0,0.0,90,0.00,,,0.00,Wunderground v.1.13,2015-05-05 07:12:00,
2015-05-05 03:18:00,53.0,50.4,30.30,NW,307,0.0,0.0,91,0.00,,,0.00,Wunderground v.1.13,2015-05-05 07:18:00,
2015-05-05 03:23:00,53.1,50.5,30.30,NW,307,0.0,0.0,91,0.00,,,0.00,Wunderground v.1.13,2015-05-05 07:23:00,
2015-05-05 03:29:00,53.1,50.5,30.30,NW,307,0.0,0.0,91,0.00,,,0.00,Wunderground v.1.13,2015-05-05 07:29:00,
2015-05-05 03:34:00,53.0,50.4,30.30,NW,307,0.0,0.0,91,0.00,,,0.00,Wunderground v.1.13,2015-05-05 07:34:00,
2015-05-05 03:40:00,53.1,50.5,30.30,NW,307,0.0,0.0,91,0.00,,,0.00,Wunderground v.1.13,2015-05-05 07:40:00,
2015-05-05 03:45:00,53.1,50.5,30.30,NW,307,0.0,0.0,91,0.00,,,0.00,Wunderground v.1.13,2015-05-05 07:45:00,
2015-05-05 03:51:00,53.3,50.7,30.31,NW,307,0.0,0.0,91,0.00,,,0.00,Wunderground v.1.13,2015-05-05 07:51:00,
2015-05-05 03:56:00,53.3,50.7,30.30,NW,307,0.0,0.0,91,0.00,,,0.00,Wunderground v.1.13,2015-05-05 07:56:00,
2015-05-05 04:02:00,53.4,51.1,30.30,NW,307,0.0,0.0,92,0.00,,,0.00,Wunderground v.1.13,2015-05-05 08:02:00,
2015-05-05 04:08:00,53.4,51.1,30.30,NW,307,0.0,0.0,92,0.00,,,0.00,Wunderground v.1.13,2015-05-05 08:08:00,
2015-05-05 04:13:00,53.4,51.1,30.30,NW,307,0.0,0.0,92,0.00,,,0.00,Wunderground v.1.13,2015-05-05 08:13:00,
2015-05-05 04:19:00,53.4,51.1,30.30,NW,307,0.0,0.0,92,0.00,,,0.00,Wunderground v.1.13,2015-05-05 08:19:00,
2015-05-05 04:25:00,53.3,51.0,30.30,NW,307,0.0,0.0,92,0.00,,,0.00,Wunderground v.1.13,2015-05-05 08:25:00,
2015-05-05 04:30:00,53.3,50.7,30.30,NW,307,0.0,0.0,91,0.00,,,0.00,Wunderground v.1.13,2015-05-05 08:30:00,
2015-05-05 04:42:00,53.1,50.5,30.30,NW,307,0.0,0.0,91,0.00,,,0.00,Wunderground v.1.13,2015-05-05 08:42:00,
2015-05-05 04:48:00,52.9,50.3,30.31,NW,307,0.0,0.0,91,0.00,,,0.00,Wunderground v.1.13,2015-05-05 08:48:00,
2015-05-05 04:54:00,52.7,50.1,30.30,NW,307,0.0,0.0,91,0.00,,,0.00,Wunderground v.1.13,2015-05-05 08:54:00,
2015-05-05 05:00:00,52.5,49.9,30.31,NW,307,0.0,0.0,91,0.00,,,0.00,Wunderground v.1.13,2015-05-05 09:00:00,
2015-05-05 05:06:00,52.5,49.9,30.31,NW,307,0.0,0.0,91,0.00,,,0.00,Wunderground v.1.13,2015-05-05 09:06:00,
2015-05-05 05:11:00,52.3,49.8,30.31,NW,307,0.0,0.0,91,0.00,,,0.00,Wunderground v.1.13,2015-05-05 09:11:00,
2015-05-05 05:17:00,52.2,49.7,30.31,NW,307,0.0,0.0,91,0.00,,,0.00,Wunderground v.1.13,2015-05-05 09:17:00,
2015-05-05 05:23:00,52.0,49.5,30.32,NW,307,0.0,0.0,91,0.00,,,0.00,Wunderground v.1.13,2015-05-05 09:23:00,
2015-05-05 05:28:00,51.8,49.3,30.32,NW,307,0.0,0.0,91,0.00,,,0.00,Wunderground v.1.13,2015-05-05 09:28:00,
2015-05-05 05:33:00,51.7,49.2,30.32,NW,307,0.0,0.0,91,0.00,,,0.00,Wunderground v.1.13,2015-05-05 09:33:00,
2015-05-05 05:39:00,51.5,49.0,30.32,NW,307,0.0,0.0,91,0.00,,,0.00,Wunderground v.1.13,2015-05-05 09:39:00,
2015-05-05 05:44:00,51.4,48.9,30.31,NW,307,0.0,0.0,91,0.00,,,0.00,Wunderground v.1.13,2015-05-05 09:44:00,
2015-05-05 05:50:00,51.2,48.7,30.32,NW,307,0.0,0.0,91,0.00,,,0.00,Wunderground v.1.13,2015-05-05 09:50:00,
2015-05-05 05:55:00,51.0,48.5,30.32,NW,307,0.0,0.0,91,0.00,,,0.00,Wunderground v.1.13,2015-05-05 09:55:00,
2015-05-05 06:01:00,50.9,48.7,30.32,NW,307,0.0,0.0,92,0.00,,,0.00,Wunderground v.1.13,2015-05-05 10:01:00,
2015-05-05 06:07:00,50.8,48.6,30.32,NW,307,0.0,0.0,92,0.00,,,0.00,Wunderground v.1.13,2015-05-05 10:07:00,
2015-05-05 06:13:00,50.7,48.5,30.32,NW,307,0.0,0.0,92,0.00,,,0.00,Wunderground v.1.13,2015-05-05 10:13:00,
2015-05-05 06:18:00,50.6,48.1,30.32,NW,307,0.0,0.0,91,0.00,,,0.00,Wunderground v.1.13,2015-05-05 10:18:00,
2015-05-05 06:24:00,50.4,47.9,30.33,NW,307,0.0,0.0,91,0.00,,,0.00,Wunderground v.1.13,2015-05-05 10:24:00,
2015-05-05 06:29:00,50.3,48.1,30.33,NW,307,0.0,0.0,92,0.00,,,0.00,Wunderground v.1.13,2015-05-05 10:29:00,
2015-05-05 06:35:00,50.1,47.9,30.34,NW,307,0.0,0.0,92,0.00,,,0.00,Wunderground v.1.13,2015-05-05 10:35:00,
2015-05-05 06:41:00,50.0,47.8,30.34,NW,307,0.0,0.0,92,0.00,,,0.00,Wunderground v.1.13,2015-05-05 10:41:00,
2015-05-05 06:46:00,49.9,47.7,30.34,NW,307,0.0,0.0,92,0.00,,,0.00,Wunderground v.1.13,2015-05-05 10:46:00,
2015-05-05 06:52:00,49.8,47.6,30.34,NW,307,0.0,0.0,92,0.00,,,0.00,Wunderground v.1.13,2015-05-05 10:52:00,
2015-05-05 06:58:00,49.7,47.5,30.35,NW,307,0.0,0.0,92,0.00,,,0.00,Wunderground v.1.13,2015-05-05 10:58:00,
2015-05-05 07:03:00,49.7,47.5,30.35,NW,307,0.0,0.0,92,0.00,,,0.00,Wunderground v.1.13,2015-05-05 11:03:00,
2015-05-05 07:08:00,49.6,47.4,30.35,NW,307,0.0,2.0,92,0.00,,,0.00,Wunderground v.1.13,2015-05-05 11:08:00,
2015-05-05 07:14:00,49.8,47.9,30.36,NW,307,0.0,0.0,93,0.00,,,0.00,Wunderground v.1.13,2015-05-05 11:14:00,
2015-05-05 07:19:00,50.0,48.1,30.36,NW,307,0.0,0.0,93,0.00,,,0.00,Wunderground v.1.13,2015-05-05 11:19:00,
2015-05-05 07:25:00,50.5,48.8,30.36,NW,307,0.0,0.0,94,0.00,,,0.00,Wunderground v.1.13,2015-05-05 11:25:00,
2015-05-05 07:30:00,50.9,49.2,30.36,NW,307,0.0,0.0,94,0.00,,,0.00,Wunderground v.1.13,2015-05-05 11:30:00,
2015-05-05 07:36:00,51.3,49.6,30.36,NW,307,0.0,0.0,94,0.00,,,0.00,Wunderground v.1.13,2015-05-05 11:36:00,
2015-05-05 07:42:00,51.7,50.0,30.36,NW,307,0.0,0.0,94,0.00,,,0.00,Wunderground v.1.13,2015-05-05 11:42:00,
2015-05-05 07:48:00,52.4,51.0,30.37,NW,307,0.0,0.0,95,0.00,,,0.00,Wunderground v.1.13,2015-05-05 11:48:00,
2015-05-05 07:53:00,53.0,51.6,30.37,NW,307,0.0,0.0,95,0.00,,,0.00,Wunderground v.1.13,2015-05-05 11:53:00,
2015-05-05 07:59:00,53.6,52.2,30.37,NW,307,0.0,0.0,95,0.00,,,0.00,Wunderground v.1.13,2015-05-05 11:59:00,
2015-05-05 08:05:00,54.2,52.8,30.37,NW,307,0.0,0.0,95,0.00,,,0.00,Wunderground v.1.13,2015-05-05 12:05:00,
2015-05-05 08:11:00,55.0,53.9,30.37,NW,307,0.0,0.0,96,0.00,,,0.00,Wunderground v.1.13,2015-05-05 12:11:00,
2015-05-05 08:17:00,55.8,54.7,30.37,NW,307,0.0,2.0,96,0.00,,,0.00,Wunderground v.1.13,2015-05-05 12:17:00,
2015-05-05 08:23:00,56.7,55.3,30.37,NW,307,0.0,0.0,95,0.00,,,0.00,Wunderground v.1.13,2015-05-05 12:23:00,
2015-05-05 08:28:00,57.5,56.1,30.37,NW,307,0.0,0.0,95,0.00,,,0.00,Wunderground v.1.13,2015-05-05 12:28:00,
2015-05-05 08:34:00,58.5,56.5,30.37,NW,307,0.0,0.0,93,0.00,,,0.00,Wunderground v.1.13,2015-05-05 12:34:00,
2015-05-05 08:40:00,59.5,57.2,30.37,NW,307,0.0,0.0,92,0.00,,,0.00,Wunderground v.1.13,2015-05-05 12:40:00,
2015-05-05 08:46:00,60.7,57.7,30.37,NW,307,0.0,0.0,90,0.00,,,0.00,Wunderground v.1.13,2015-05-05 12:46:00,
2015-05-05 08:51:00,61.8,57.9,30.37,NW,307,0.0,0.0,87,0.00,,,0.00,Wunderground v.1.13,2015-05-05 12:51:00,
2015-05-05 08:57:00,63.0,58.1,30.37,NW,307,0.0,0.0,84,0.00,,,0.00,Wunderground v.1.13,2015-05-05 12:57:00,
2015-05-05 09:02:00,63.9,58.0,30.37,NW,307,0.0,0.0,81,0.00,,,0.00,Wunderground v.1.13,2015-05-05 13:02:00,
2015-05-05 09:07:00,65.0,58.7,30.37,NW,307,0.0,0.0,80,0.00,,,0.00,Wunderground v.1.13,2015-05-05 13:07:00,
2015-05-05 09:13:00,66.2,58.8,30.36,NW,307,0.0,0.0,77,0.00,,,0.00,Wunderground v.1.13,2015-05-05 13:13:00,
2015-05-05 09:18:00,67.0,58.8,30.36,NW,307,0.0,0.0,75,0.00,,,0.00,Wunderground v.1.13,2015-05-05 13:18:00,
2015-05-05 09:24:00,67.9,59.7,30.36,NW,307,0.0,0.0,75,0.00,,,0.00,Wunderground v.1.13,2015-05-05 13:24:00,
2015-05-05 09:30:00,68.8,60.2,30.36,NW,307,0.0,0.0,74,0.00,,,0.00,Wunderground v.1.13,2015-05-05 13:30:00,
2015-05-05 09:35:00,69.4,60.0,30.36,NW,307,0.0,0.0,72,0.00,,,0.00,Wunderground v.1.13,2015-05-05 13:35:00,
2015-05-05 09:40:00,69.9,59.3,30.36,NW,307,0.0,0.0,69,0.00,,,0.00,Wunderground v.1.13,2015-05-05 13:40:00,
2015-05-05 09:46:00,70.6,58.7,30.36,NW,307,0.0,0.0,66,0.00,,,0.00,Wunderground v.1.13,2015-05-05 13:46:00,
2015-05-05 09:51:00,71.2,58.4,30.36,NW,307,0.0,0.0,64,0.00,,,0.00,Wunderground v.1.13,2015-05-05 13:51:00,
2015-05-05 09:57:00,71.8,58.1,30.37,NW,307,0.0,1.0,62,0.00,,,0.00,Wunderground v.1.13,2015-05-05 13:57:00,
2015-05-05 10:03:00,72.7,58.5,30.37,NW,307,0.0,0.0,61,0.00,,,0.00,Wunderground v.1.13,2015-05-05 14:03:00,
2015-05-05 10:08:00,73.5,58.8,30.37,NW,307,0.0,3.0,60,0.00,,,0.00,Wunderground v.1.13,2015-05-05 14:08:00,
2015-05-05 10:14:00,73.9,58.2,30.36,NW,307,1.0,5.0,58,0.00,,,0.00,Wunderground v.1.13,2015-05-05 14:14:00,
2015-05-05 10:20:00,74.3,58.1,30.37,NW,307,1.0,3.0,57,0.00,,,0.00,Wunderground v.1.13,2015-05-05 14:20:00,
2015-05-05 10:25:00,74.4,57.7,30.37,NW,307,0.0,0.0,56,0.00,,,0.00,Wunderground v.1.13,2015-05-05 14:25:00,
2015-05-05 10:31:00,75.0,58.2,30.36,NW,307,1.0,2.0,56,0.00,,,0.00,Wunderground v.1.13,2015-05-05 14:31:00,
2015-05-05 10:37:00,75.3,59.0,30.37,NW,307,2.0,2.0,57,0.00,,,0.00,Wunderground v.1.13,2015-05-05 14:37:00,
2015-05-05 10:43:00,75.8,58.5,30.36,NW,306,2.0,4.0,55,0.00,,,0.00,Wunderground v.1.13,2015-05-05 14:43:00,
2015-05-05 10:48:00,76.0,58.7,30.36,NW,306,2.0,3.0,55,0.00,,,0.00,Wunderground v.1.13,2015-05-05 14:48:00,
2015-05-05 10:54:00,75.9,58.6,30.36,WNW,303,2.0,3.0,55,0.00,,,0.00,Wunderground v.1.13,2015-05-05 14:54:00,
2015-05-05 10:59:00,75.8,58.5,30.36,WNW,300,2.0,7.0,55,0.00,,,0.00,Wunderground v.1.13,2015-05-05 14:59:00,
2015-05-05 11:05:00,75.8,59.0,30.36,West,281,2.0,2.0,56,0.00,,,0.00,Wunderground v.1.13,2015-05-05 15:05:00,
2015-05-05 11:11:00,76.6,59.7,30.37,NW,313,1.0,4.0,56,0.00,,,0.00,Wunderground v.1.13,2015-05-05 15:11:00,
2015-05-05 11:17:00,77.1,58.6,30.37,West,279,2.0,5.0,53,0.00,,,0.00,Wunderground v.1.13,2015-05-05 15:17:00,
2015-05-05 11:22:00,77.4,57.9,30.36,West,281,3.0,4.0,51,0.00,,,0.00,Wunderground v.1.13,2015-05-05 15:22:00,
2015-05-05 11:28:00,77.8,58.2,30.36,West,271,3.0,9.0,51,0.00,,,0.00,Wunderground v.1.13,2015-05-05 15:28:00,
2015-05-05 11:33:00,77.5,57.4,30.36,West,269,5.0,9.0,50,0.00,,,0.00,Wunderground v.1.13,2015-05-05 15:33:00,
2015-05-05 11:38:00,77.4,58.9,30.36,West,265,5.0,5.0,53,0.00,,,0.00,Wunderground v.1.13,2015-05-05 15:38:00,
2015-05-05 11:44:00,77.4,57.9,30.36,West,265,3.0,8.0,51,0.00,,,0.00,Wunderground v.1.13,2015-05-05 15:44:00,
2015-05-05 11:50:00,77.5,57.9,30.36,West,265,4.0,4.0,51,0.00,,,0.00,Wunderground v.1.13,2015-05-05 15:50:00,
2015-05-05 11:55:00,77.3,58.3,30.36,West,281,5.0,5.0,52,0.00,,,0.00,Wunderground v.1.13,2015-05-05 15:55:00,
2015-05-05 12:01:00,77.5,57.9,30.36,WNW,294,5.0,5.0,51,0.00,,,0.00,Wunderground v.1.13,2015-05-05 16:01:00,
2015-05-05 12:07:00,77.4,57.9,30.36,NW,321,3.0,4.0,51,0.00,,,0.00,Wunderground v.1.13,2015-05-05 16:07:00,
2015-05-05 12:12:00,78.0,57.9,30.36,NW,318,3.0,7.0,50,0.00,,,0.00,Wunderground v.1.13,2015-05-05 16:12:00,
2015-05-05 12:18:00,78.3,57.6,30.35,NW,315,5.0,6.0,49,0.00,,,0.00,Wunderground v.1.13,2015-05-05 16:18:00,
2015-05-05 12:23:00,78.0,57.9,30.35,NW,315,5.0,5.0,50,0.00,,,0.00,Wunderground v.1.13,2015-05-05 16:23:00,
2015-05-05 12:29:00,78.7,59.0,30.35,NW,313,4.0,5.0,51,0.00,,,0.00,Wunderground v.1.13,2015-05-05 16:29:00,
2015-05-05 12:35:00,79.1,57.7,30.34,NW,313,4.0,4.0,48,0.00,,,0.00,Wunderground v.1.13,2015-05-05 16:35:00,
2015-05-05 12:41:00,79.6,58.2,30.34,NW,313,2.0,3.0,48,0.00,,,0.00,Wunderground v.1.13,2015-05-05 16:41:00,
2015-05-05 12:46:00,80.1,58.0,30.34,NW,315,1.0,2.0,47,0.00,,,0.00,Wunderground v.1.13,2015-05-05 16:46:00,
2015-05-05 12:52:00,79.7,58.3,30.34,NW,315,1.0,1.0,48,0.00,,,0.00,Wunderground v.1.13,2015-05-05 16:52:00,
2015-05-05 12:57:00,79.3,58.5,30.33,NNW,327,1.0,1.0,49,0.00,,,0.00,Wunderground v.1.13,2015-05-05 16:57:00,
2015-05-05 13:02:00,79.0,56.5,30.33,NNW,331,1.0,4.0,46,0.00,,,0.00,Wunderground v.1.13,2015-05-05 17:02:00,
2015-05-05 13:08:00,79.2,57.2,30.33,NNW,333,3.0,6.0,47,0.00,,,0.00,Wunderground v.1.13,2015-05-05 17:08:00,
2015-05-05 13:13:00,79.2,56.6,30.32,NNW,348,4.0,5.0,46,0.00,,,0.00,Wunderground v.1.13,2015-05-05 17:13:00,
2015-05-05 13:19:00,79.1,55.9,30.32,North,355,3.0,5.0,45,0.00,,,0.00,Wunderground v.1.13,2015-05-05 17:19:00,
2015-05-05 13:25:00,79.8,57.8,30.32,North,355,2.0,7.0,47,0.00,,,0.00,Wunderground v.1.13,2015-05-05 17:25:00,
2015-05-05 13:31:00,80.2,57.5,30.32,NNW,338,3.0,9.0,46,0.00,,,0.00,Wunderground v.1.13,2015-05-05 17:31:00,
2015-05-05 13:36:00,80.2,56.9,30.32,NNW,338,4.0,4.0,45,0.00,,,0.00,Wunderground v.1.13,2015-05-05 17:36:00,
2015-05-05 13:42:00,80.7,57.4,30.31,North,9,3.0,8.0,45,0.00,,,0.00,Wunderground v.1.13,2015-05-05 17:42:00,
2015-05-05 13:48:00,80.1,57.5,30.31,North,10,3.0,4.0,46,0.00,,,0.00,Wunderground v.1.13,2015-05-05 17:48:00,
2015-05-05 13:53:00,80.3,57.0,30.31,NNE,20,2.0,3.0,45,0.00,,,0.00,Wunderground v.1.13,2015-05-05 17:53:00,
2015-05-05 13:59:00,81.1,58.4,30.31,NNE,20,2.0,4.0,46,0.00,,,0.00,Wunderground v.1.13,2015-05-05 17:59:00,
2015-05-05 14:05:00,81.1,56.5,30.31,NNE,30,2.0,2.0,43,0.00,,,0.00,Wunderground v.1.13,2015-05-05 18:05:00,
2015-05-05 14:11:00,80.4,56.5,30.30,NE,36,2.0,4.0,44,0.00,,,0.00,Wunderground v.1.13,2015-05-05 18:11:00,
2015-05-05 14:16:00,80.2,55.7,30.30,NE,36,2.0,2.0,43,0.00,,,0.00,Wunderground v.1.13,2015-05-05 18:16:00,
2015-05-05 14:22:00,81.5,56.8,30.30,NE,44,1.0,4.0,43,0.00,,,0.00,Wunderground v.1.13,2015-05-05 18:22:00,
2015-05-05 14:27:00,82.2,57.5,30.29,NE,44,1.0,1.0,43,0.00,,,0.00,Wunderground v.1.13,2015-05-05 18:27:00,
2015-05-05 14:33:00,83.2,57.7,30.29,NE,44,1.0,1.0,42,0.00,,,0.00,Wunderground v.1.13,2015-05-05 18:33:00,
2015-05-05 14:39:00,83.1,58.3,30.29,NE,44,1.0,2.0,43,0.00,,,0.00,Wunderground v.1.13,2015-05-05 18:39:00,
2015-05-05 14:44:00,83.1,57.6,30.29,NE,38,1.0,7.0,42,0.00,,,0.00,Wunderground v.1.13,2015-05-05 18:44:00,
2015-05-05 14:50:00,82.6,57.2,30.28,NNE,32,3.0,3.0,42,0.00,,,0.00,Wunderground v.1.13,2015-05-05 18:50:00,
2015-05-05 14:56:00,81.5,56.8,30.28,NE,49,5.0,6.0,43,0.00,,,0.00,Wunderground v.1.13,2015-05-05 18:56:00,
2015-05-05 15:01:00,80.8,56.9,30.28,NE,49,4.0,4.0,44,0.00,,,0.00,Wunderground v.1.13,2015-05-05 19:01:00,
2015-05-05 15:06:00,81.0,57.0,30.28,NE,47,2.0,5.0,44,0.00,,,0.00,Wunderground v.1.13,2015-05-05 19:06:00,
2015-05-05 15:12:00,81.1,57.1,30.27,NE,47,1.0,1.0,44,0.00,,,0.00,Wunderground v.1.13,2015-05-05 19:12:00,
2015-05-05 15:17:00,82.3,57.6,30.27,NE,47,0.0,1.0,43,0.00,,,0.00,Wunderground v.1.13,2015-05-05 19:17:00,
2015-05-05 15:23:00,82.8,58.0,30.27,NNE,29,2.0,6.0,43,0.00,,,0.00,Wunderground v.1.13,2015-05-05 19:23:00,
2015-05-05 15:29:00,82.7,57.3,30.27,NNE,24,3.0,5.0,42,0.00,,,0.00,Wunderground v.1.13,2015-05-05 19:29:00,
2015-05-05 15:34:00,82.7,57.9,30.26,NNE,19,3.0,6.0,43,0.00,,,0.00,Wunderground v.1.13,2015-05-05 19:34:00,
2015-05-05 15:39:00,82.9,57.5,30.26,NNE,24,3.0,5.0,42,0.00,,,0.00,Wunderground v.1.13,2015-05-05 19:39:00,
2015-05-05 15:45:00,82.9,57.5,30.26,North,10,3.0,5.0,42,0.00,,,0.00,Wunderground v.1.13,2015-05-05 19:45:00,
2015-05-05 15:50:00,82.7,57.3,30.26,North,5,4.0,4.0,42,0.00,,,0.00,Wunderground v.1.13,2015-05-05 19:50:00,
2015-05-05 15:56:00,82.8,57.4,30.26,NNE,12,3.0,5.0,42,0.00,,,0.00,Wunderground v.1.13,2015-05-05 19:56:00,
2015-05-05 16:01:00,82.6,57.8,30.25,North,5,3.0,5.0,43,0.00,,,0.00,Wunderground v.1.13,2015-05-05 20:01:00,
2015-05-05 16:07:00,82.5,56.4,30.25,NNE,13,4.0,6.0,41,0.00,,,0.00,Wunderground v.1.13,2015-05-05 20:07:00,
2015-05-05 16:13:00,82.6,57.8,30.25,NNW,327,5.0,5.0,43,0.00,,,0.00,Wunderground v.1.13,2015-05-05 20:13:00,
2015-05-05 16:19:00,82.7,57.3,30.25,NNW,337,5.0,7.0,42,0.00,,,0.00,Wunderground v.1.13,2015-05-05 20:19:00,
2015-05-05 16:24:00,82.5,56.4,30.25,NNW,341,6.0,10.0,41,0.00,,,0.00,Wunderground v.1.13,2015-05-05 20:24:00,
2015-05-05 16:30:00,82.5,56.4,30.24,NNW,344,5.0,5.0,41,0.00,,,0.00,Wunderground v.1.13,2015-05-05 20:30:00,
2015-05-05 16:36:00,82.5,57.1,30.24,North,350,4.0,4.0,42,0.00,,,0.00,Wunderground v.1.13,2015-05-05 20:36:00,
2015-05-05 16:41:00,82.8,56.0,30.24,North,350,4.0,4.0,40,0.00,,,0.00,Wunderground v.1.13,2015-05-05 20:41:00,
2015-05-05 16:47:00,83.0,57.5,30.24,North,355,3.0,5.0,42,0.00,,,0.00,Wunderground v.1.13,2015-05-05 20:47:00,
2015-05-05 16:53:00,83.2,57.1,30.23,NNW,348,3.0,5.0,41,0.00,,,0.00,Wunderground v.1.13,2015-05-05 20:53:00,
2015-05-05 16:58:00,83.6,56.7,30.23,NNW,346,3.0,7.0,40,0.00,,,0.00,Wunderground v.1.13,2015-05-05 20:58:00,
2015-05-05 17:04:00,84.1,56.5,30.23,NNW,346,3.0,4.0,39,0.00,,,0.00,Wunderground v.1.13,2015-05-05 21:04:00,
2015-05-05 17:10:00,83.6,55.3,30.23,North,349,3.0,3.0,38,0.00,,,0.00,Wunderground v.1.13,2015-05-05 21:10:00,
2015-05-05 17:15:00,83.1,54.9,30.23,North,350,4.0,4.0,38,0.00,,,0.00,Wunderground v.1.13,2015-05-05 21:15:00,
2015-05-05 17:21:00,83.1,54.9,30.23,North,350,3.0,4.0,38,0.00,,,0.00,Wunderground v.1.13,2015-05-05 21:21:00,
2015-05-05 17:26:00,83.2,54.2,30.22,North,350,3.0,3.0,37,0.00,,,0.00,Wunderground v.1.13,2015-05-05 21:26:00,
2015-05-05 17:32:00,83.5,54.5,30.22,North,350,2.0,4.0,37,0.00,,,0.00,Wunderground v.1.13,2015-05-05 21:32:00,
2015-05-05 17:37:00,83.8,54.7,30.22,North,350,2.0,3.0,37,0.00,,,0.00,Wunderground v.1.13,2015-05-05 21:37:00,
2015-05-05 17:43:00,84.0,54.9,30.22,North,350,3.0,5.0,37,0.00,,,0.00,Wunderground v.1.13,2015-05-05 21:43:00,
2015-05-05 17:48:00,84.1,55.0,30.22,North,350,3.0,4.0,37,0.00,,,0.00,Wunderground v.1.13,2015-05-05 21:48:00,
2015-05-05 17:54:00,84.2,55.1,30.22,North,350,3.0,3.0,37,0.00,,,0.00,Wunderground v.1.13,2015-05-05 21:54:00,
2015-05-05 17:59:00,84.2,55.1,30.22,North,350,3.0,4.0,37,0.00,,,0.00,Wunderground v.1.13,2015-05-05 21:59:00,
2015-05-05 18:05:00,84.2,55.1,30.22,North,350,3.0,3.0,37,0.00,,,0.00,Wunderground v.1.13,2015-05-05 22:05:00,
2015-05-05 18:11:00,84.2,54.4,30.22,North,350,3.0,6.0,36,0.00,,,0.00,Wunderground v.1.13,2015-05-05 22:11:00,
2015-05-05 18:16:00,84.0,54.2,30.22,North,350,4.0,4.0,36,0.00,,,0.00,Wunderground v.1.13,2015-05-05 22:16:00,
2015-05-05 18:22:00,83.9,54.8,30.22,North,350,4.0,4.0,37,0.00,,,0.00,Wunderground v.1.13,2015-05-05 22:22:00,
2015-05-05 18:28:00,83.8,54.7,30.21,North,350,3.0,4.0,37,0.00,,,0.00,Wunderground v.1.13,2015-05-05 22:28:00,
2015-05-05 18:34:00,83.6,53.1,30.21,North,350,2.0,4.0,35,0.00,,,0.00,Wunderground v.1.13,2015-05-05 22:34:00,
2015-05-05 18:39:00,83.5,54.5,30.22,North,350,1.0,1.0,37,0.00,,,0.00,Wunderground v.1.13,2015-05-05 22:39:00,
2015-05-05 18:45:00,83.5,54.5,30.21,North,350,1.0,2.0,37,0.00,,,0.00,Wunderground v.1.13,2015-05-05 22:45:00,
2015-05-05 18:51:00,83.6,54.6,30.21,North,350,2.0,2.0,37,0.00,,,0.00,Wunderground v.1.13,2015-05-05 22:51:00,
2015-05-05 18:56:00,83.5,55.2,30.21,North,350,1.0,1.0,38,0.00,,,0.00,Wunderground v.1.13,2015-05-05 22:56:00,
2015-05-05 19:02:00,83.4,54.4,30.21,North,350,0.0,0.0,37,0.00,,,0.00,Wunderground v.1.13,2015-05-05 23:02:00,
2015-05-05 19:08:00,83.3,53.6,30.21,North,350,1.0,2.0,36,0.00,,,0.00,Wunderground v.1.13,2015-05-05 23:08:00,
2015-05-05 19:13:00,83.2,55.7,30.21,North,350,1.0,1.0,39,0.00,,,0.00,Wunderground v.1.13,2015-05-05 23:13:00,
2015-05-05 19:19:00,83.1,55.6,30.21,North,350,0.0,2.0,39,0.00,,,0.00,Wunderground v.1.13,2015-05-05 23:19:00,
2015-05-05 19:24:00,83.1,56.3,30.21,North,350,1.0,2.0,40,0.00,,,0.00,Wunderground v.1.13,2015-05-05 23:24:00,
2015-05-05 19:30:00,83.0,58.2,30.21,North,350,1.0,1.0,43,0.00,,,0.00,Wunderground v.1.13,2015-05-05 23:30:00,
2015-05-05 19:36:00,82.9,60.0,30.21,North,350,0.0,0.0,46,0.00,,,0.00,Wunderground v.1.13,2015-05-05 23:36:00,
2015-05-05 19:42:00,82.6,59.7,30.21,North,350,0.0,0.0,46,0.00,,,0.00,Wunderground v.1.13,2015-05-05 23:42:00,
2015-05-05 19:47:00,82.3,60.1,30.21,North,350,0.0,0.0,47,0.00,,,0.00,Wunderground v.1.13,2015-05-05 23:47:00,
2015-05-05 19:53:00,82.0,59.8,30.21,North,350,0.0,0.0,47,0.00,,,0.00,Wunderground v.1.13,2015-05-05 23:53:00,
2015-05-05 19:58:00,81.7,61.2,30.21,North,350,0.0,0.0,50,0.00,,,0.00,Wunderground v.1.13,2015-05-05 23:58:00,
2015-05-05 20:04:00,81.4,61.0,30.21,North,350,0.0,0.0,50,0.00,,,0.00,Wunderground v.1.13,2015-05-06 00:04:00,
2015-05-05 20:10:00,81.0,61.7,30.21,North,350,0.0,0.0,52,0.00,,,0.00,Wunderground v.1.13,2015-05-06 00:10:00,
2015-05-05 20:16:00,80.3,61.6,30.21,North,350,0.0,0.0,53,0.00,,,0.00,Wunderground v.1.13,2015-05-06 00:16:00,
2015-05-05 20:21:00,78.7,58.5,30.21,NNW,327,1.0,6.0,50,0.00,,,0.00,Wunderground v.1.13,2015-05-06 00:21:00,
2015-05-05 20:27:00,77.4,58.4,30.21,WNW,293,4.0,6.0,52,0.00,,,0.00,Wunderground v.1.13,2015-05-06 00:27:00,
2015-05-05 20:32:00,76.4,58.0,30.22,West,277,4.0,5.0,53,0.00,,,0.00,Wunderground v.1.13,2015-05-06 00:32:00,
2015-05-05 20:37:00,75.7,58.4,30.22,West,277,4.0,4.0,55,0.00,,,0.00,Wunderground v.1.13,2015-05-06 00:37:00,
2015-05-05 20:43:00,74.8,57.5,30.22,West,269,4.0,6.0,55,0.00,,,0.00,Wunderground v.1.13,2015-05-06 00:43:00,
2015-05-05 20:49:00,74.3,57.6,30.22,West,269,3.0,4.0,56,0.00,,,0.00,Wunderground v.1.13,2015-05-06 00:49:00,
2015-05-05 20:55:00,73.8,57.6,30.22,West,269,2.0,3.0,57,0.00,,,0.00,Wunderground v.1.13,2015-05-06 00:55:00,
2015-05-05 21:01:00,73.4,57.2,30.22,West,269,2.0,2.0,57,0.00,,,0.00,Wunderground v.1.13,2015-05-06 01:01:00,
2015-05-05 21:07:00,73.1,57.4,30.23,West,269,0.0,1.0,58,0.00,,,0.00,Wunderground v.1.13,2015-05-06 01:07:00,
2015-05-05 21:13:00,72.7,57.5,30.23,West,269,0.0,0.0,59,0.00,,,0.00,Wunderground v.1.13,2015-05-06 01:13:00,
2015-05-05 21:19:00,72.4,57.3,30.23,West,269,0.0,0.0,59,0.00,,,0.00,Wunderground v.1.13,2015-05-06 01:19:00,
2015-05-05 21:24:00,72.0,57.4,30.23,West,269,0.0,1.0,60,0.00,,,0.00,Wunderground v.1.13,2015-05-06 01:24:00,
2015-05-05 21:30:00,71.7,57.5,30.23,West,269,0.0,0.0,61,0.00,,,0.00,Wunderground v.1.13,2015-05-06 01:30:00,
2015-05-05 21:36:00,71.3,57.2,30.23,West,269,0.0,0.0,61,0.00,,,0.00,Wunderground v.1.13,2015-05-06 01:36:00,
2015-05-05 21:41:00,71.1,57.0,30.23,West,269,0.0,0.0,61,0.00,,,0.00,Wunderground v.1.13,2015-05-06 01:41:00,
2015-05-05 21:47:00,70.8,57.6,30.23,West,269,0.0,0.0,63,0.00,,,0.00,Wunderground v.1.13,2015-05-06 01:47:00,
2015-05-05 21:52:00,70.4,57.2,30.24,West,269,0.0,0.0,63,0.00,,,0.00,Wunderground v.1.13,2015-05-06 01:52:00,
2015-05-05 21:58:00,69.9,57.2,30.24,West,269,0.0,0.0,64,0.00,,,0.00,Wunderground v.1.13,2015-05-06 01:58:00,
2015-05-05 22:03:00,69.4,57.1,30.24,West,269,0.0,0.0,65,0.00,,,0.00,Wunderground v.1.13,2015-05-06 02:03:00,
2015-05-05 22:09:00,68.7,56.9,30.25,West,269,0.0,0.0,66,0.00,,,0.00,Wunderground v.1.13,2015-05-06 02:09:00,
2015-05-05 22:15:00,68.2,56.4,30.25,West,269,0.0,0.0,66,0.00,,,0.00,Wunderground v.1.13,2015-05-06 02:15:00,
2015-05-05 22:20:00,67.6,56.7,30.25,West,269,0.0,0.0,68,0.00,,,0.00,Wunderground v.1.13,2015-05-06 02:20:00,
2015-05-05 22:26:00,66.9,56.4,30.25,West,269,0.0,0.0,69,0.00,,,0.00,Wunderground v.1.13,2015-05-06 02:26:00,
2015-05-05 22:31:00,66.3,56.2,30.25,West,269,0.0,0.0,70,0.00,,,0.00,Wunderground v.1.13,2015-05-06 02:31:00,
2015-05-05 22:37:00,65.7,56.4,30.25,West,269,0.0,0.0,72,0.00,,,0.00,Wunderground v.1.13,2015-05-06 02:37:00,
2015-05-05 22:43:00,65.2,56.3,30.25,West,269,0.0,0.0,73,0.00,,,0.00,Wunderground v.1.13,2015-05-06 02:43:00,
2015-05-05 22:48:00,64.9,56.4,30.25,West,269,0.0,0.0,74,0.00,,,0.00,Wunderground v.1.13,2015-05-06 02:48:00,
2015-05-05 22:54:00,64.5,56.4,30.26,West,269,0.0,0.0,75,0.00,,,0.00,Wunderground v.1.13,2015-05-06 02:54:00,
2015-05-05 23:00:00,64.1,56.0,30.25,West,269,0.0,0.0,75,0.00,,,0.00,Wunderground v.1.13,2015-05-06 03:00:00,